time_stamp(utc),avg(mph),gust(mph),direction(deg),12m_air_temp(f),sonic_u(cm/s),sonic_v(cm/s),sonic_w(cm/s),pressure,2m_air_temp(f),pyranometer(W/m^2)
"2018-03-22 05:07:58+00",20.3,22.3,,32.5,20000,0,-1,1004.42,31.7,-0.1
"2018-03-22 05:12:58+00",21.3,23.3,,32.5,-418,997,105,1004.4,31.8,0
"2018-03-22 05:17:58+00",21.8,24.8,,32.6,-423,1002,115,1004.29,31.8,0
"2018-03-22 05:22:58+00",21.5,24.5,,32.5,-383,1007,101,1004.41,31.8,0
"2018-03-22 05:27:58+00",21.4,23.4,,32.6,-355,1000,85,1004.39,31.8,0
"2018-03-22 05:32:58+00",20.4,23.4,,32.7,-406,978,58,1004.45,31.9,0
"2018-03-22 05:37:58+00",22.6,24.6,,32.7,-120,1089,-85,1004.58,31.9,0
"2018-03-22 05:42:58+00",21.7,23.7,,32.8,115,1049,-196,1004.59,31.9,0
"2018-03-22 05:47:58+00",22.0,25.0,,32.7,715,1067,-465,1004.71,31.9,0
"2018-03-22 05:52:58+00",23.3,26.3,,32.7,-619,1098,178,1004.62,31.9,0
"2018-03-22 07:07:58+00",26.0,32.0,,32.9,-1096,2172,-613,1005.04,32.1,0
"2018-03-22 07:12:58+00",24.7,27.7,,32.9,-379,1153,-4,1005.11,32,0
"2018-03-22 07:17:58+00",26.3,29.3,,33,20000,0,-1,1005,32,-0.1
"2018-03-22 07:22:58+00",24.1,28.1,,33,225,42,655,1005.17,32.1,0
"2018-03-22 07:27:58+00",24.4,30.4,,33,107,224,508,1005.17,32.1,0
"2018-03-22 07:32:58+00",24.4,28.4,,33,-314,1002,68,1005.22,32.1,0
"2018-03-22 07:37:58+00",25.1,28.1,,33,-340,914,139,1005.22,32.1,0
"2018-03-22 07:42:58+00",25.1,28.1,,33,-357,881,142,1005.28,32.2,0
"2018-03-22 07:47:58+00",26.1,30.1,,33,-270,939,128,1005.4,32.1,0
"2018-03-22 07:52:58+00",24.4,28.4,,33,-337,906,118,1005.4,32.1,0
"2018-03-22 07:57:58+00",24.3,30.3,,33,-268,839,154,1005.29,32.1,0
"2018-03-22 08:02:58+00",27.3,30.3,,33,-63,367,482,1005.38,32.2,0
"2018-03-22 08:07:58+00",25.6,29.6,,33.1,-351,962,109,1005.42,32.2,0
"2018-03-22 08:12:58+00",25.6,30.6,,33.2,-261,963,125,1005.39,32.2,0
"2018-03-22 08:17:58+00",26.3,29.3,,33.3,-392,1057,91,1005.46,32.2,0
"2018-03-22 08:22:58+00",26.2,29.2,,33.3,-415,1036,78,1005.49,32.2,0
"2018-03-22 08:27:58+00",22.8,25.8,,33.3,-392,891,92,1005.58,32.2,0
"2018-03-22 08:32:58+00",23.6,26.6,,33.3,-400,929,93,1005.66,32.3,0
"2018-03-22 08:37:58+00",25.1,27.1,,33.3,-319,1059,56,1005.78,32.3,0
"2018-03-22 08:42:58+00",26.0,29.0,,33.3,-417,1159,22,1005.89,32.3,0
"2018-03-22 08:47:58+00",27.8,30.8,,33.4,-1047,1967,-475,1005.84,32.4,0
"2018-03-22 08:52:58+00",26.0,30.0,,33.4,-874,1724,-375,1005.95,32.4,0
"2018-03-22 09:57:58+00",24.5,26.5,,33.5,20000,0,-1,1006.74,32.5,-0.1
"2018-03-22 10:02:58+00",21.0,24.0,,33.6,-2143,3765,-1529,1006.88,32.5,0
"2018-03-22 10:07:58+00",23.2,25.2,,33.7,-2358,4222,-1726,1006.98,32.6,0
"2018-03-22 10:12:58+00",23.0,25.0,,33.6,-1619,2945,-1071,1007.03,32.6,0
"2018-03-22 10:27:58+00",22.5,27.5,,33.8,836,-1372,1322,1007.42,32.5,0
"2018-03-22 10:32:58+00",22.3,25.3,,33.7,1195,-2113,1732,1007.38,32.5,0
"2018-03-22 10:37:58+00",22.1,27.1,,33.7,1915,-3428,2429,1007.4,32.5,0
"2018-03-22 10:42:58+00",21.0,23.0,,33.6,2115,-3718,2609,1007.43,32.5,0
"2018-03-22 10:47:58+00",21.0,23.0,,33.5,1548,-2801,2071,1007.51,32.5,0
"2018-03-22 10:52:58+00",23.4,26.4,,33.4,1170,-2062,1716,1007.51,32.4,0
"2018-03-22 10:57:58+00",25.2,30.2,,33.6,1198,-1939,1693,1007.77,32.4,0
"2018-03-22 11:02:58+00",23.4,29.4,,33.7,732,-1314,1314,1007.87,32.4,0
"2018-03-22 11:07:58+00",21.0,24.0,,33.8,103,-81,554,1007.99,32.5,0
"2018-03-22 11:12:58+00",22.6,24.6,,33.8,-293,542,255,1008.08,32.5,0
"2018-03-22 11:17:58+00",22.5,26.5,,33.5,-464,711,124,1008.24,32.5,0
"2018-03-22 11:22:58+00",20.2,23.2,,33.4,-533,703,55,1008.25,32.5,0
"2018-03-22 11:27:58+00",20.4,23.4,,33.3,-554,704,66,1008.26,32.4,0
"2018-03-22 11:32:58+00",20.8,22.8,,33.3,-615,697,78,1008.44,32.4,0
"2018-03-22 11:37:58+00",20.2,22.2,,33.3,-622,645,61,1008.45,32.4,0
"2018-03-22 11:42:58+00",19.8,22.8,,33.3,-623,620,47,1008.55,32.4,0
"2018-03-22 11:47:58+00",17.4,20.4,,33.4,-570,528,68,1008.72,32.4,0
"2018-03-22 11:52:58+00",19.1,23.1,,33.4,-629,565,53,1008.73,32.5,0
"2018-03-22 11:57:58+00",20.4,22.4,,33.4,-679,581,59,1008.74,32.5,0
"2018-03-22 12:02:58+00",19.5,22.5,,33.4,-688,539,67,1008.82,32.6,0
"2018-03-22 12:07:58+00",21.5,24.5,,33.5,-695,648,60,1008.79,32.6,0
"2018-03-22 12:12:58+00",19.6,21.6,,33.5,-628,606,68,1008.93,32.6,0
"2018-03-22 12:17:58+00",19.4,22.4,,33.5,-657,570,71,1008.93,32.6,0
"2018-03-22 12:22:58+00",17.5,21.5,,33.5,-598,506,83,1009.08,32.6,0
"2018-03-22 12:27:58+00",21.2,24.2,,33.5,-716,596,66,1008.76,32.6,0
"2018-03-22 12:32:58+00",19.9,22.9,,33.4,-696,531,46,1009.18,32.7,0
"2018-03-22 12:37:58+00",19.3,22.3,,33.4,-694,520,57,1009.01,32.7,0
"2018-03-22 12:42:58+00",21.2,24.2,,33.3,-737,594,39,1009.35,32.7,0
"2018-03-22 12:47:58+00",19.0,23.0,,33.4,-692,520,60,1009.05,32.7,0.1
"2018-03-22 12:52:58+00",20.1,24.1,,33.5,-664,594,57,1009.36,32.8,6.8
"2018-03-22 12:57:58+00",19.4,21.4,,33.5,-687,546,55,1009.02,33,19.6
"2018-03-22 13:02:58+00",19.3,24.3,,33.7,-662,583,80,1009.39,33.1,33.5
"2018-03-22 13:07:58+00",21.8,25.8,,33.7,-767,616,51,1009.02,33.2,32.2
"2018-03-22 13:12:58+00",21.1,23.1,,33.7,-742,579,52,1009.41,33.3,32.3
"2018-03-22 13:17:58+00",22.3,24.3,,33.7,-839,561,66,1009.43,33.2,22.8
"2018-03-22 13:22:58+00",21.0,25.0,,33.7,-746,567,69,1009.4,33.2,37.1
"2018-03-22 13:27:58+00",20.2,23.2,,33.7,-697,577,75,1009.43,33.3,58.9
"2018-03-22 13:32:58+00",20.6,23.6,,33.8,-683,631,73,1009.52,33.5,118.2
"2018-03-22 13:37:58+00",22.2,27.2,,34.1,-759,645,74,1009.52,34,236.2
"2018-03-22 13:42:58+00",23.9,26.9,,34.1,-818,685,60,1009.49,34.3,272.4
"2018-03-22 13:47:58+00",22.0,25.0,,34.2,-737,682,62,1009.1,34.5,277.7
"2018-03-22 13:52:58+00",24.4,30.4,,34.2,-787,765,62,1009.39,34.4,232.3
"2018-03-22 13:57:58+00",22.9,27.9,,34.1,-766,687,68,1009.4,34.3,233.2
"2018-03-22 14:02:58+00",23.4,25.4,,34.1,-761,714,55,1009.51,34.3,261
"2018-03-22 14:07:58+00",23.3,25.3,,34.2,-774,707,51,1009.5,34.6,310.7
"2018-03-22 14:12:58+00",20.2,23.2,,34.5,-646,620,64,1009.51,34.9,308.3
"2018-03-22 14:17:58+00",21.8,23.8,,34.4,-721,654,54,1009.69,34.9,340.3
"2018-03-22 14:22:58+00",22.4,26.4,,34.7,-737,674,73,1009.69,35.1,348.9
"2018-03-22 14:27:58+00",21.5,23.5,,34.9,-661,692,54,1009.77,35.4,346
"2018-03-22 14:32:58+00",20.3,23.3,,35,-659,625,57,1009.84,35.5,373.2
"2018-03-22 14:37:58+00",23.2,26.2,,34.9,-756,712,45,1009.81,35.7,357.3
"2018-03-22 14:42:58+00",24.2,26.2,,35,-732,786,45,1009.84,35.6,374.5
"2018-03-22 14:47:58+00",23.3,28.3,,35.1,-699,760,55,1009.89,35.5,262.8
"2018-03-22 14:52:58+00",22.3,24.3,,35.1,-692,703,56,1009.92,35.5,256.8
"2018-03-22 14:57:58+00",23.3,27.3,,35.3,-718,762,58,1009.97,35.6,237.2
"2018-03-22 15:02:58+00",21.6,24.6,,35.3,-692,665,54,1010.09,35.7,248.6
"2018-03-22 15:07:58+00",21.9,24.9,,35.4,-670,711,55,1010.21,35.8,229.2
"2018-03-22 15:12:58+00",21.3,24.3,,35.5,-654,693,58,1010.24,35.9,264.1
"2018-03-22 15:17:58+00",24.7,26.7,,35.5,-826,730,59,1010.17,36.1,292.2
"2018-03-22 15:22:58+00",23.0,27.0,,35.8,-742,706,60,1009.95,36.5,453.4
"2018-03-22 15:27:58+00",24.1,27.1,,35.9,-719,809,61,1009.97,36.8,332.2
"2018-03-22 15:32:58+00",23.5,27.5,,35.9,-732,740,50,1010.03,36.8,359
"2018-03-22 15:37:58+00",20.2,23.2,,36.1,-692,599,68,1010.16,37.1,393.8
"2018-03-22 15:42:58+00",19.7,22.7,,36.2,-602,640,68,1010.17,37.2,447.1
"2018-03-22 15:47:58+00",20.6,24.6,,36.3,-629,659,67,1010.15,37.3,433.1
"2018-03-22 15:52:58+00",22.6,24.6,,36.5,-679,729,52,1010.18,37.7,471.1
"2018-03-22 15:57:58+00",22.7,24.7,,36.6,-735,717,57,1010.06,37.7,465.4
"2018-03-22 16:02:58+00",23.1,25.1,,36.7,-754,697,57,1010.14,37.8,485
"2018-03-22 16:07:58+00",24.3,26.3,,36.8,-742,782,53,1010.06,37.9,486.7
"2018-03-22 16:12:58+00",22.1,24.1,,37,-667,727,65,1010.21,38.1,450.8
"2018-03-22 16:17:58+00",20.6,23.6,,37.1,-622,673,61,1010.13,38.1,436.8
"2018-03-22 16:22:58+00",21.4,25.4,,37.1,-669,679,54,1010.13,38.2,484.6
"2018-03-22 16:27:58+00",23.2,25.2,,37.3,-723,737,72,1010.24,38.1,458.9
"2018-03-22 16:32:58+00",21.4,22.4,,37.4,-687,674,58,1010.26,38.1,354.6
"2018-03-22 16:37:58+00",22.3,24.3,,37.6,-753,654,52,1010.15,38.5,275.3
"2018-03-22 16:42:58+00",22.4,24.4,,37.9,-658,747,56,1010.16,38.9,520.7
"2018-03-22 16:47:58+00",18.9,20.9,,38.1,-578,622,57,1010.16,39.2,438
"2018-03-22 16:52:58+00",21.2,24.2,,38.4,-667,678,63,1010.12,39.6,499
"2018-03-22 16:57:58+00",18.8,19.8,,38.4,-604,587,57,1010.18,39.6,472.5
"2018-03-22 17:02:58+00",18.7,21.7,,38.6,-535,647,54,1010.22,39.8,462.1
"2018-03-22 17:07:58+00",18.5,20.5,,38.6,-586,591,66,1010.16,39.8,374.6
"2018-03-22 17:12:58+00",20.6,23.6,,38.6,-686,635,66,1010.2,39.6,519.4
"2018-03-22 17:17:58+00",20.8,24.8,,38.8,-689,634,53,1010.14,39.7,523.8
"2018-03-22 17:22:58+00",22.4,24.4,,38.9,-725,690,50,1010.05,39.9,518.9
"2018-03-22 17:27:58+00",23.7,25.7,,39.1,-734,761,59,1010.05,40.1,511.2
"2018-03-22 17:32:58+00",23.0,25.0,,39.3,-662,784,66,1010.05,40.2,507.3
"2018-03-22 17:37:58+00",21.7,23.7,,39.3,-734,647,56,1010.13,40.4,498.7
"2018-03-22 17:42:58+00",21.3,24.3,,39.6,-706,640,66,1010.13,40.5,489.2
"2018-03-22 17:47:58+00",20.6,24.6,,39.7,-681,626,49,1010.08,40.7,475.1
"2018-03-22 17:52:58+00",24.2,25.2,,39.9,-768,766,55,1010.07,40.8,469
"2018-03-22 17:57:58+00",20.4,22.4,,40.1,-654,629,51,1010.02,41.1,470.2
"2018-03-22 18:02:58+00",20.4,22.4,,40.4,-660,625,62,1010.02,41.4,461.5
"2018-03-22 18:07:58+00",22.0,25.0,,40.6,-699,695,59,1010.02,41.5,456.8
"2018-03-22 18:12:58+00",18.6,21.6,,40.7,-634,533,50,1010,41.8,452.2
"2018-03-22 18:17:58+00",18.1,20.1,,41,-555,577,60,1010.05,42,440.3
"2018-03-22 18:22:58+00",18.2,22.2,,41,-622,527,65,1010.01,42.2,448.6
"2018-03-22 18:27:58+00",21.9,24.9,,41.4,-602,767,52,1009.95,42.3,448.5
"2018-03-22 18:32:58+00",18.5,20.5,,41.7,-546,615,41,1009.96,42.8,441
"2018-03-22 18:37:58+00",23.1,25.1,,41.7,-810,655,61,1009.93,42.7,447.3
"2018-03-22 18:42:58+00",23.2,26.2,,42,-743,716,60,1009.95,42.9,426.8
"2018-03-22 18:47:58+00",23.7,25.7,,42.2,-769,747,59,1009.91,43.2,429.9
"2018-03-22 18:52:58+00",19.2,21.2,,42.4,-621,601,53,1009.95,43.5,420.1
"2018-03-22 18:57:58+00",18.0,19.0,,42.6,-545,596,49,1009.86,43.8,412.7
"2018-03-22 19:02:58+00",21.3,25.3,,42.7,-723,628,64,1009.81,43.8,404.7
"2018-03-22 19:07:58+00",22.4,25.4,,42.9,-700,709,56,1009.96,43.9,399.6
"2018-03-22 19:12:58+00",21.1,23.1,,43.2,-624,719,59,1009.87,44,389.2
"2018-03-22 19:17:58+00",20.8,23.8,,43.4,-591,711,70,1009.9,44.5,378.3
"2018-03-22 19:22:58+00",22.4,25.4,,43.5,-729,696,46,1009.95,44.7,368.2
"2018-03-22 19:27:58+00",22.7,23.7,,43.5,-684,739,47,1009.91,44.6,358.1
"2018-03-22 19:32:58+00",22.7,25.7,,43.7,-687,744,56,1010.04,44.7,353.7
"2018-03-22 19:37:58+00",20.5,24.5,,43.8,-737,562,57,1009.98,44.8,348.4
"2018-03-22 19:42:58+00",22.6,25.6,,43.9,-685,743,59,1010.02,44.9,339.7
"2018-03-22 19:47:58+00",19.2,24.2,,44.1,-536,670,41,1010.04,45.1,331.1
"2018-03-22 19:52:58+00",19.2,21.2,,44.2,-632,567,61,1010.01,45.4,324.3
"2018-03-22 19:57:58+00",20.4,24.4,,44.1,-658,633,52,1010.05,45.2,317.9
"2018-03-22 20:02:58+00",21.0,23.0,,44.2,-667,669,67,1010.11,45.2,309.5
"2018-03-22 20:07:58+00",20.6,21.6,,44.4,-671,635,47,1010.07,45.3,303
"2018-03-22 20:12:58+00",22.3,25.3,,44.7,-610,776,60,1010.18,45.6,297.2
"2018-03-22 20:17:58+00",22.3,23.3,,45,-697,717,60,1010.1,45.9,279.6
"2018-03-22 20:22:58+00",20.4,22.4,,45,-611,672,50,1010.03,45.9,270.6
"2018-03-22 20:27:58+00",17.2,20.2,,45.1,-476,604,41,1010.02,46.2,264.3
"2018-03-22 20:32:58+00",20.8,22.8,,45.2,-691,622,45,1010.11,46.3,261.3
"2018-03-22 20:37:58+00",20.4,24.4,,45.3,-603,687,54,1010.23,45.9,257.5
"2018-03-22 20:42:58+00",20.3,23.3,,45.7,-625,670,50,1010.21,46.4,251
"2018-03-22 20:47:58+00",16.6,19.6,,45.4,-561,513,46,1010.32,46.4,247
"2018-03-22 20:52:58+00",17.1,20.1,,45.4,-550,543,47,1010.4,46.3,218.2
"2018-03-22 20:57:58+00",22.6,25.6,,45.6,-659,772,51,1010.37,46,215.9
"2018-03-22 21:02:58+00",19.1,21.1,,45.4,-602,609,33,1010.43,46,199.8
"2018-03-22 21:07:58+00",20.5,23.5,,45.6,-631,669,45,1010.46,46.1,144.7
"2018-03-22 21:12:58+00",16.4,19.4,,45.4,-472,550,57,1010.46,45.8,127.4
"2018-03-22 21:17:58+00",18.4,21.4,,45.6,-590,570,54,1010.53,45.8,178
"2018-03-22 21:22:58+00",20.8,23.8,,45.9,-678,630,45,1010.54,46.2,187.2
"2018-03-22 21:27:58+00",19.1,23.1,,45.7,-581,610,49,1010.6,46.3,177.9
"2018-03-22 21:32:58+00",19.4,22.4,,46.1,-660,568,41,1010.54,46.4,166.5
"2018-03-22 21:37:58+00",18.4,19.4,,45.7,-609,550,51,1010.69,46.2,159.7
"2018-03-22 21:42:58+00",18.1,20.1,,45.8,-553,589,53,1010.72,46.1,121.9
"2018-03-22 21:47:58+00",19.1,21.1,,45.9,-620,591,48,1010.7,46,94.8
"2018-03-22 21:52:58+00",17.6,19.6,,46,-567,543,58,1010.86,45.9,56.2
"2018-03-22 21:57:58+00",22.8,24.8,,46,-673,776,52,1010.95,45.6,12.2
"2018-03-22 22:02:58+00",20.9,22.9,,45.9,-523,773,54,1011.04,45.3,9.5
"2018-03-22 22:07:58+00",16.8,19.8,,45.5,-529,525,42,1011.23,45,33.9
"2018-03-22 22:12:58+00",16.4,21.4,,45.3,-525,527,54,1011.26,44.7,21.9
"2018-03-22 22:17:58+00",14.6,16.6,,45,-496,424,45,1011.28,44.6,9.7
"2018-03-22 22:22:58+00",17.6,20.6,,45.1,-576,538,48,1011.33,44.5,8.2
"2018-03-22 22:27:58+00",16.8,18.8,,45,-545,516,45,1011.45,44.4,11.4
"2018-03-22 22:32:58+00",14.7,15.7,,44.6,-502,418,34,1011.58,44,0.6
"2018-03-22 22:37:58+00",13.2,15.2,,44.7,-440,403,35,1011.6,43.8,0
"2018-03-22 22:42:58+00",12.9,14.9,,44.4,-436,370,35,1011.67,43.5,0
"2018-03-22 22:47:58+00",13.2,15.2,,44.3,-461,379,35,1011.75,43.3,0
"2018-03-22 22:52:58+00",12.4,14.4,,44,-443,333,29,1011.84,43,0
"2018-03-22 22:57:58+00",11.4,12.4,,43.9,-410,297,27,1011.92,42.5,0
"2018-03-22 23:02:58+00",10.6,11.6,,43.7,-386,279,24,1012.09,42.1,0
"2018-03-22 23:07:58+00",10.6,11.6,,43.3,-388,269,22,1012.18,41.7,0
"2018-03-22 23:12:58+00",10.2,11.2,,43.1,-361,268,24,1012.31,41.5,0
"2018-03-22 23:17:58+00",9.9,10.9,,43,-351,269,20,1012.26,41.3,0
"2018-03-22 23:22:58+00",10.0,11.0,,43,-369,246,21,1012.38,41.1,0
"2018-03-22 23:27:58+00",9.7,10.7,,42.8,-356,229,20,1012.45,40.7,0
"2018-03-22 23:32:58+00",6.9,7.9,,41.7,-297,29,10,1012.56,40.2,0
"2018-03-22 23:37:58+00",9.1,10.1,,41.4,-394,92,20,1012.67,39.5,0
"2018-03-22 23:42:58+00",9.2,10.2,,41.2,-399,103,18,1012.76,39.1,0
"2018-03-22 23:47:58+00",10.7,10.7,,41.3,-454,160,26,1012.92,39.1,0
"2018-03-22 23:52:58+00",11.6,12.6,,41.4,-488,181,30,1012.92,39.3,0
"2018-03-22 23:57:58+00",10.8,11.8,,41.2,-453,170,25,1012.99,39.3,0
